{"data":{"norad_id":64564,"epoch":"2026-05-25T00:42:02.916288Z","epoch_age_seconds":79348,"freshness":"FRESH","line1":"1 64564U 25135AN  26145.02920042  .00002391  00000+0  22525-3 0  9991","line2":"2 64564  97.7683 259.7110 0002078  32.4013 327.7334 14.94773800 50447","mean_motion":14.947738,"eccentricity":0.0002078,"inclination_deg":97.7683,"raan_deg":259.711,"arg_perigee_deg":32.4013,"mean_anomaly_deg":327.7334,"bstar":0.00022525,"rev_number":5044,"period_min":96.33564623624,"perigee_km":581.62840336625,"apogee_km":584.52148304985,"semimajor_km":6961.211943208,"source":"CELESTRAK","updated_at":"2026-05-25T13:38:04.618337Z"}}